Point Salines, Grenada

8:06 PM AST on December 17, 2014 (GMT -0400)
Point Salines International | Change Station
CLOSE
Current Station
Airport
Location: Point Salines,
Elevation: 23 ft
Nearby Weather Stations

Elev 23 ft 12.00 °N, 61.79 °W | Updated 6 minutes ago

Partly Cloudy
Partly Cloudy
79 °F
Feels Like 79 °F
N
9
Wind Variable Wind from East

Today
High -- | Low -- °F
--% Chance of Precip.
Yesterday
High -- | Low -- °F
Precip. -- in
6:20 AM 5:46 PM
Waning Crescent, 19% visible
Pressure 29.92 in
Visibility 6.2 miles
Clouds Few 1900 ft
Dew Point 75 °F
Humidity 89%
Rainfall 0.00 in
Snow Depth Not available.
UV 0 out of 12
Pollen Not available.
Air Quality Not available.
Flu Activity Not available.
METAR TGPY 180000Z 09008KT 9999 FEW019 26/24 Q1013 NOSIG

More Conditions Fewer Conditions

Pressure 29.92 in
Visibility 6.2 miles
Clouds Few 1900 ft
Dew Point 75 °F
Humidity 89%
Rainfall 0.00 in
Snow Depth Not available.
UV 0 out of 12
Pollen Not available.
Air Quality Not available.
Flu Activity Not available.
METAR TGPY 180000Z 09008KT 9999 FEW019 26/24 Q1013 NOSIG

More Conditions Fewer Conditions

10-Day Weather Forecast

Almanac

Astronomy

Dec. 17, 2014 Rise Set
Actual Time
Civil Twilight
Nautical Twilight
Astronomical Twilight
Moon
Length of Visible Light
Length of Day
Tomorrow will be .
, % of the Moon is Illuminated

Today's Extremes

Country Highs Country Lows

Community

WunderPhotos

Upload Photos

1,778,831 photos uploaded!

WunderBlogs® & News

Nearby

Air Quality

  Air Quality AQ Index Pollutant
Not available.

Snow Depth

Station Depth Elevation

Earthquake Activity

City Distance Mag. Time & Date
Minimum magnitude displayed is 2.5.

Coastal Water Temperatures

Place Temperature

Nearby Weather Stations